Regional Weather Roundup
Issued by NWS

Home | Current Version | Previous Version | Graphics & Text | Print | Product List | Glossary On
Versions: 1 2 3 4 5 6 7 8 9 10 11 12 13 14 15 16 17 18 19 20 21 22 23 24 25 26 27 28 29 30 31 32 33 34 35 36 37 38 39 40 41 42 43 44 45 46 47 48 49 50
000
ASUS43 KLMK 271702
RWRKY
KENTUCKY REGIONAL WEATHER ROUNDUP
NATIONAL WEATHER SERVICE LOUISVILLE KY
100 PM EDT SAT AUG 27 2016

NOTE "FAIR" INDICATES FEW OR NO CLOUDS BELOW 12,000 FEET
WITH NO SIGNIFICANT WEATHER AND/OR OBSTRUCTIONS TO VISIBILITY.

KYZ001>023-026-027-061>063-070>075-271800-
WESTERN AND SOUTH CENTRAL KENTUCKY

CITY           SKY/WX    TMP DP  RH WIND       PRES   REMARKS
PADUCAH        MOSUNNY   85  73  67 CALM      30.09F HX  91
HENDERSON      CLOUDY    82  70  65 SE3       30.09F
OWENSBORO      MOSUNNY   85  74  69 N8        30.12F HX  92
HOPKINSVILLE   MOSUNNY   87  75  66 SW5       30.10F HX  96
BOWLING GREEN  PTSUNNY   90  75  61 W7        30.10F HX 100
GLASGOW        SUNNY     90  73  57 W3        30.11F HX  97
$$

KYZ024-025-028>034-038-045-046-053-271800-
NORTH CENTRAL KENTUCKY

CITY           SKY/WX    TMP DP  RH WIND       PRES   REMARKS
LOUISVILLE/SDF CLOUDY    89  73  59 W9        30.09F HX  97
LOUISVILLE/LOU PTSUNNY   90  73  57 VRB3      30.10F HX  98
FORT KNOX      CLOUDY    87  75  67 W3        30.10F HX  96
$$

KYZ035>037-039>044-047>052-055>060-089>105-271800-
NORTHEAST KENTUCKY

CITY           SKY/WX    TMP DP  RH WIND       PRES   REMARKS
LEXINGTON      SUNNY     90  71  53 SW8       30.13S HX  96
COVINGTON      MOSUNNY   89  74  60 S10       30.11F HX  98
FRANKFORT      SUNNY     91  73  55 VRB5      30.11S HX  99
$$

KYZ054-064>069-076>088-106>120-271800-
SOUTHEAST KENTUCKY

CITY           SKY/WX    TMP DP  RH WIND       PRES   REMARKS
JACKSON        SUNNY     87  72  60 CALM      30.16F HX  93
LONDON         SUNNY     89  69  51 VRB5      30.15F HX  93
SOMERSET       SUNNY     86  72  62 W5        30.15S HX  92
MIDDLESBORO    SUNNY     90  72  56 S5        30.15F HX  97
MONTICELLO     MOSUNNY  N/A N/A N/A W12       30.15F
$$





USA.gov is the U.S. government's official web portal to all federal, state and local government web resources and services.